Terug naar catalogus

LEMUR 2 AMANDA-SVANTE

ActiefWetenschapSSO
NORAD 48269·PAYLOAD·🇺🇸 United States

Gelanceerd Apr 29, 2021 vanaf Guiana Space Centre

Loading…

Volgende Passages (komende 24 uur)

TLE

VersSource: Space-Track

Epoch: Sep 13, 2026, 23:14 UTC

1 48269U 21034B   26256.96841389  .00035001  00000-0  88918-3 0  9994
2 48269  97.5690 337.9105 0000928 264.8189  95.2950 15.39562168294698

Volg LEMUR 2 AMANDA-SVANTE in realtime met AllMySat

Download on the App Store